Weather History for CYMX - December, 2012

Change the Weather History Date:

Wednesday, December 12, 2012

  Actual Average Record
Temperature  
Mean Temperature 12 °F -  
Max Temperature 21 °F 28 °F 42 °F (1998)
Min Temperature 3 °F 15 °F -11 °F (2013)
Degree Days  
Heating Degree Days 53    
Moisture  
Dew Point 11 °F    
Average Humidity 90    
Maximum Humidity 93    
Minimum Humidity 85    
Precipitation  
Precipitation 0.00 in - - ()
Sea Level Pressure  
Sea Level Pressure 30.32 in    
Wind  
Wind Speed 2 mph ()    
Max Wind Speed 7 mph    
Max Gust Speed -    
Visibility 9.6 miles    
Events Snow    
Averages and records for this station are not official NWS values.
T = Trace of Precipitation, MM = Missing Value Source: Averaged Metar Reports

Daily Weather History Graph

Daily Weather History Graph

Search for Another Location

Airport or City:

Trip Planner

Search our weather history database for the weather conditions in past years. The results will help you decide how hot, cold, wet, or windy it might be!

Date:

Astronomy

Dec. 12, 2012 Rise Set
Actual Time 7:28 AM EST 4:12 PM EST
Civil Twilight 6:53 AM EST 4:46 PM EST
Nautical Twilight 6:16 AM EST 5:24 PM EST
Astronomical Twilight 5:40 AM EST 6:00 PM EST
Moon 6:28 AM EST (12/12) 3:47 PM EST (12/12)
Length of Visible Light 9h 52m
Length of Day
8h 44m
Waning Crescent, 1% of the Moon is Illuminated
Dec 12
Waning Crescent
Dec 13
New
Dec 20
First Quarter
Dec 28
Full
Jan 4
Last Quarter

Hourly Weather History & Observations

Time (EST) Temp. Windchill Dew Point Humidity Pressure Visibility Wind Dir Wind Speed Gust Speed Precip Events Conditions
12:00 AM 8.6 °F 2.0 °F 6.8 °F 92% 30.22 in 25.0 mi WSW 3.5 mph - N/A   Clear
1:00 AM 8.6 °F - 6.8 °F 92% 30.24 in 25.0 mi Calm Calm - N/A   Partly Cloudy
2:00 AM 6.8 °F - 5.0 °F 92% 30.25 in 15.0 mi WNW 2.3 mph - N/A   Scattered Clouds
3:00 AM 5.0 °F - 1.4 °F 85% 30.27 in 15.0 mi Calm Calm - N/A   Partly Cloudy
4:00 AM 5.0 °F - 1.4 °F 85% 30.28 in 25.0 mi South 2.3 mph - N/A   Clear
5:00 AM 5.0 °F - 3.2 °F 92% 30.28 in 25.0 mi North 2.3 mph - N/A   Clear
6:00 AM 5.0 °F - 1.4 °F 85% 30.29 in 25.0 mi Calm Calm - N/A   Clear
7:00 AM 3.2 °F - -0.4 °F 85% 30.32 in 45.0 mi Calm Calm - N/A   Partly Cloudy
8:00 AM 5.0 °F -2.1 °F 1.4 °F 85% 30.33 in 25.0 mi North 3.5 mph - N/A   Mostly Cloudy
8:22 AM 6.8 °F -2.0 °F 3.2 °F 85% 30.31 in 5.0 mi NNE 4.6 mph - N/A Snow Light Snow Showers
9:00 AM 8.6 °F -1.3 °F 6.8 °F 92% 30.33 in 5.0 mi NNE 5.8 mph - N/A Snow Light Snow Showers
10:00 AM 12.2 °F 2.9 °F 8.6 °F 85% 30.33 in 8.0 mi NE 5.8 mph - N/A Snow Light Snow Showers
11:00 AM 14.0 °F 5.1 °F 12.2 °F 93% 30.32 in 12.0 mi NNE 5.8 mph - N/A Snow Light Snow Showers
11:42 AM 15.8 °F 8.6 °F 12.2 °F 86% 30.32 in 8.0 mi NE 4.6 mph - N/A   Overcast
12:00 PM 15.8 °F 10.2 °F 14.0 °F 93% 30.32 in 12.0 mi North 3.5 mph - N/A   Overcast
12:42 PM 17.6 °F 12.3 °F 15.8 °F 93% 30.32 in 12.0 mi ENE 3.5 mph - N/A   Overcast
1:00 PM 17.6 °F 10.7 °F 14.0 °F 86% 30.31 in 12.0 mi East 4.6 mph - N/A   Overcast
2:00 PM 19.4 °F 14.3 °F 15.8 °F 86% 30.33 in 12.0 mi NNE 3.5 mph - N/A   Overcast
2:20 PM 19.4 °F 12.8 °F 17.6 °F 93% 30.33 in 10.0 mi ENE 4.6 mph - N/A Snow Light Snow Showers
3:00 PM 19.4 °F 14.3 °F 17.6 °F 93% 30.33 in 5.0 mi NNE 3.5 mph - N/A Snow Light Snow Showers
4:00 PM 19.4 °F - 17.6 °F 93% 30.34 in 10.0 mi Calm Calm - N/A Snow Light Snow Showers
5:00 PM 21.2 °F - 17.6 °F 86% 30.34 in 6.0 mi Calm Calm - N/A Snow Light Snow Showers
6:00 PM 21.2 °F - 19.4 °F 93% 30.36 in 10.0 mi Calm Calm - N/A Snow Light Snow Showers
7:00 PM 21.2 °F - 19.4 °F 93% 30.37 in 10.0 mi North 2.3 mph - N/A   Overcast
8:00 PM 21.2 °F - 19.4 °F 93% 30.38 in 8.0 mi Calm Calm - N/A   Overcast
9:00 PM 21.2 °F - 19.4 °F 93% 30.38 in 8.0 mi Calm Calm - N/A Snow Light Snow Showers
10:00 PM 21.2 °F 12.6 °F 19.4 °F 93% 30.39 in 8.0 mi South 6.9 mph - N/A Snow Light Snow Showers
11:00 PM 21.2 °F 14.9 °F 19.4 °F 93% 30.40 in 10.0 mi SW 4.6 mph - N/A   Mostly Cloudy